Wind_Speed
9 5 2 4 6 9 10 11 11 9 7 7 6 6 6 5 5 6 6 5 3 2 6 8 5 5 7 7 12 23 22 11 4 13 17 18 20 21 22 23 22 23 23 20 19 19 19 19 19 19 19 17 16 15 14 11 8 5 3 2 1 2 2 2 3 3 4 4 3 3 4 5 7 8 10 11 13 15 16 17 18 19 20 21 22 23
7 5 6 10 11 12 11 9 8 7 7 7 6 6 5 5 6 6 6 7 2 2 6 5 2 5 7 8 15 19 11 4 9 16 16 19 21 21 23 23 23 24 23 23 24 24 24 25 25 26 26 26 26 25 22 21 18 14 11 9 7 4 2 2 3 4 4 4 5 5 4 3 2 1 2 4 7 10 12 14 15 17 18 19 20 21
4 4 9 14 12 10 9 7 6 7 7 6 5 3 3 4 4 6 6 5 0 3 5 5 3 6 8 9 15 10 7 7 10 17 17 20 21 20 22 23 24 25 25 26 27 28 29 29 29 30 31 32 31 30 29 27 25 23 21 18 14 10 6 6 7 7 7 5 4 3 3 3 3 3 2 1 1 4 5 7 9 12 14 16 17 19
4 6 14 17 11 7 9 8 7 7 5 5 4 3 5 4 2 4 5 4 1 2 3 4 4 5 7 8 7 7 14 15 16 20 20 20 22 22 22 23 25 26 26 27 28 28 30 31 32 33 34 34 33 34 33 32 31 29 28 25 22 18 15 14 14 13 12 10 7 4 3 2 2 3 3 2 2 2 1 1 4 6 8 10 12 14
6 8 14 13 8 7 9 9 7 6 4 4 5 5 5 5 5 6 4 4 3 4 2 1 4 4 6 8 2 6 12 15 16 19 20 20 22 23 23 24 25 25 26 27 27 28 29 31 33 34 34 34 34 35 35 34 34 33 32 30 27 24 23 22 21 20 18 17 15 11 8 6 4 5 6 6 7 6 6 5 4 4 4 5 6 8
8 10 11 7 6 7 7 8 7 6 3 4 4 7 8 8 8 6 2 4 4 5 3 1 3 5 5 7 5 5 6 8 10 14 17 17 18 21 23 23 23 24 25 26 26 27 29 30 32 33 34 34 34 35 34 33 33 33 32 32 30 29 27 27 27 26 25 25 23 20 16 13 11 10 11 11 11 10 10 10 8 7 5 4 3 3
5 9 8 6 7 7 7 7 6 6 4 3 5 6 7 7 6 5 2 2 0 4 3 2 1 5 6 5 5 5 5 7 7 9 12 14 16 19 21 21 21 23 25 26 27 27 29 30 31 32 32 33 34 33 32 31 31 31 31 31 30 29 29 29 28 27 27 28 27 26 23 20 17 15 14 13 11 11 11 11 11 10 9 7 6 5
3 5 4 4 4 5 6 6 5 7 6 4 5 3 3 4 5 5 4 3 3 3 5 2 3 4 6 4 9 10 5 7 6 6 8 12 15 18 20 20 20 22 23 26 28 28 30 30 30 31 30 31 31 30 29 29 29 28 28 28 27 27 27 26 26 26 26 27 26 25 24 22 21 19 16 14 13 12 12 12 12 12 12 10 9 8
1 3 4 5 4 3 5 5 4 8 5 5 4 4 5 5 4 3 4 2 2 2 5 3 4 2 6 5 9 9 5 5 6 6 6 10 15 17 18 18 19 21 23 25 28 29 29 29 29 28 28 28 27 27 26 26 26 25 25 24 24 24 25 24 23 23 24 25 24 23 22 21 21 19 17 16 14 14 13 13 13 12 12 11 10 10
1 2 3 5 5 4 6 3 2 7 4 4 3 4 4 4 4 4 4 3 3 3 4 6 5 3 5 6 5 2 4 6 6 6 7 11 15 16 17 16 17 20 23 24 26 28 28 27 27 25 25 25 25 24 23 23 22 22 21 20 20 21 22 21 21 21 23 23 22 22 21 20 19 18 17 16 15 15 15 15 14 13 12 12 11 10
2 2 1 2 4 5 4 1 3 4 3 3 5 5 6 5 5 4 2 4 3 3 6 8 9 6 3 6 4 2 3 7 9 7 8 12 15 16 16 15 15 18 21 22 24 25 26 26 24 23 22 22 21 21 20 20 20 19 19 19 19 20 19 19 19 20 21 21 21 21 20 19 18 17 16 16 16 16 16 16 16 15 14 13 12 11
3 1 2 3 4 4 5 2 3 4 3 5 5 4 4 4 4 5 4 4 2 5 6 7 8 7 4 6 3 3 5 4 11 10 11 13 15 18 16 14 15 16 19 21 22 23 23 23 22 20 20 19 18 18 18 18 18 17 17 16 16 17 17 17 17 18 19 19 20 19 18 18 18 17 17 17 17 16 16 16 16 15 15 14 14 13
3 4 4 1 2 5 5 2 2 5 5 5 4 5 4 3 3 2 1 0 3 6 6 4 4 4 6 5 2 4 7 4 9 13 16 17 19 20 17 15 15 16 17 20 20 21 20 20 19 18 17 16 15 16 17 17 16 16 16 15 15 15 15 15 16 16 17 18 18 17 17 17 16 16 16 16 16 16 16 16 15 15 15 15 15 15
3 5 2 1 2 6 8 4 2 2 1 4 4 4 4 2 1 3 4 2 3 5 5 3 3 2 6 3 4 4 5 9 18 21 22 22 22 21 19 17 16 16 17 18 18 18 17 17 16 15 14 13 13 15 15 15 15 15 14 14 15 15 15 15 15 16 16 17 17 16 15 15 14 15 15 15 16 16 16 16 16 16 15 15 15 15
2 5 3 4 2 6 9 6 6 4 3 5 5 6 4 4 4 3 4 3 3 4 4 3 1 3 3 1 4 5 10 17 23 25 24 24 22 20 19 17 16 16 16 16 16 16 15 14 13 13 12 12 12 13 14 14 13 13 13 13 14 14 14 14 15 15 16 16 15 14 13 13 13 14 14 15 15 15 15 16 16 16 16 16 15 15
4 5 5 2 1 7 7 4 6 6 1 3 3 4 2 4 4 2 3 4 3 2 4 3 2 2 3 2 3 7 13 17 20 21 22 21 20 19 18 17 17 16 16 15 14 13 12 11 11 11 10 10 11 12 12 12 12 12 13 13 13 14 14 14 15 15 15 15 14 13 13 13 13 13 13 14 14 15 15 16 16 16 17 17 16 16
2 5 3 3 2 4 5 3 3 4 1 1 3 3 5 4 5 1 4 2 2 2 4 2 2 2 2 2 2 6 8 10 11 14 17 18 18 18 17 16 16 16 15 14 12 11 10 9 9 8 7 7 8 9 10 10 10 11 12 12 13 14 14 14 14 14 14 13 13 13 13 14 14 15 15 16 16 16 16 16 16 16 17 17 18 18
2 3 3 2 1 3 2 1 1 1 3 3 3 4 3 0 3 3 1 2 1 4 3 3 6 5 2 2 1 4 6 6 5 8 12 15 16 16 16 16 16 15 14 12 10 10 8 7 6 5 5 5 6 7 7 8 9 9 10 11 11 12 12 13 13 13 13 13 13 13 14 14 15 16 17 17 17 17 17 17 18 18 18 18 19 19
3 1 5 2 4 2 2 3 3 4 4 4 3 2 1 1 2 0 1 2 4 6 4 4 8 6 4 4 4 5 7 7 6 7 8 10 13 15 16 16 15 14 12 11 10 9 8 6 4 3 3 3 4 5 6 7 7 7 8 9 9 10 11 11 11 12 12 13 13 14 14 14 15 16 16 16 17 18 18 19 19 19 19 19 20 20
2 1 4 2 1 1 3 3 2 3 3 2 2 2 1 3 3 2 2 3 4 5 5 5 6 4 3 4 6 9 10 10 9 7 6 9 14 17 18 17 15 14 12 11 10 9 7 5 3 1 1 2 3 3 4 4 5 5 6 7 7 8 9 9 10 10 11 12 12 13 14 15 15 16 16 16 16 17 18 18 19 19 20 20 21 21
1 2 3 4 3 1 0 1 5 4 1 1 2 2 1 1 1 2 2 2 3 3 4 5 5 4 3 1 3 9 10 10 10 8 7 12 17 18 18 17 15 13 11 11 10 8 6 4 3 2 2 2 2 2 1 1 2 3 4 5 5 6 7 7 8 9 9 10 11 12 12 13 14 15 16 17 17 18 18 18 19 20 21 21 22 23
1 2 2 2 3 2 4 5 4 5 4 3 2 3 3 2 1 3 4 2 3 3 4 4 6 5 2 3 2 4 7 8 12 12 11 16 20 20 20 17 14 11 10 11 10 8 7 5 3 3 3 2 2 2 2 1 0 1 2 3 4 6 7 8 9 10 11 12 13 14 14 15 15 16 16 17 18 19 19 20 21 22 23 23 23 24
2 2 2 3 4 4 6 6 2 1 3 4 3 2 3 3 3 3 5 3 1 2 2 2 4 3 1 2 3 4 8 12 18 19 17 21 24 22 20 16 12 10 9 10 10 8 6 4 3 3 3 3 3 3 3 2 1 1 2 3 4 5 6 8 9 11 12 13 14 16 17 18 19 19 19 20 20 21 21 22 23 24 24 25 25 26
3 2 1 3 4 3 5 5 4 4 2 1 1 1 2 2 2 3 4 1 1 3 3 2 4 3 1 2 1 5 11 15 19 20 20 22 23 21 18 15 14 13 12 12 12 10 8 6 6 6 5 5 4 3 2 2 2 3 3 4 5 5 6 7 8 10 11 12 14 15 17 18 20 21 22 23 24 25 25 26 26 26 27 27 28 28
1 1 2 1 2 4 5 5 4 5 3 1 2 1 3 2 1 1 0 1 1 4 4 4 5 3 1 1 1 3 7 10 14 18 19 19 19 18 17 17 16 15 15 15 14 12 10 10 9 9 8 7 6 4 3 3 2 2 3 4 5 6 7 8 9 10 11 12 13 14 16 17 19 21 22 23 24 25 26 27 28 29 29 30 30 31
3 2 3 3 3 5 4 3 3 2 2 0 2 3 1 1 1 0 1 1 2 1 1 3 4 3 2 1 2 2 3 6 12 16 17 17 18 18 18 19 19 18 18 17 15 13 12 11 11 10 9 8 7 6 5 5 4 4 4 5 6 7 8 9 9 10 11 12 13 15 16 18 19 21 22 23 24 25 26 27 28 29 31 32 33 34
2 1 3 5 6 7 6 6 4 3 1 2 4 6 6 5 3 3 2 3 3 0 3 7 7 6 8 7 5 6 6 7 10 14 18 20 20 20 20 20 20 19 18 16 15 13 12 12 12 11 10 9 8 8 8 7 7 6 5 6 7 8 10 11 12 13 13 14 15 16 18 19 20 21 22 23 24 25 26 27 28 30 32 33 35 37
4 2 4 5 6 6 5 5 1 3 2 5 5 7 10 9 4 4 4 4 2 1 7 10 7 6 10 12 8 6 7 7 9 15 20 22 22 22 21 19 19 19 17 16 15 14 14 14 14 12 11 11 11 10 10 8 8 8 8 9 10 12 14 16 17 18 18 19 20 21 23 23 24 24 24 24 25 26 27 28 30 31 33 35 37 38
4 4 4 4 5 6 4 3 2 1 2 5 6 8 10 12 10 6 7 8 6 6 9 10 9 10 11 11 9 6 8 10 12 14 17 17 17 18 17 17 18 19 18 16 15 16 17 17 15 14 12 12 11 11 10 10 10 10 11 13 14 16 18 19 21 22 23 23 24 25 27 28 28 28 27 28 28 29 30 32 33 35 36 37 39 40
3 2 2 3 3 6 5 3 2 1 3 5 7 10 11 12 11 8 10 12 9 9 11 11 12 14 12 10 8 10 12 10 8 7 7 7 7 7 9 14 17 18 17 16 16 16 18 17 15 13 12 11 12 12 13 13 13 13 14 15 16 18 20 22 24 24 25 25 26 28 29 30 30 30 30 31 32 33 34 36 38 39 40 41 42 43
2 1 1 2 0 5 4 1 2 1 4 6 10 13 12 11 10 10 12 11 9 10 12 12 12 12 10 8 8 10 9 5 3 3 3 3 3 4 7 11 14 15 15 14 14 14 16 16 15 14 14 14 14 15 15 15 15 15 16 16 17 18 21 24 25 25 25 26 28 29 30 31 31 31 32 33 35 36 38 40 41 43 44 45 46 47
1 1 0 3 2 5 3 3 1 4 4 7 13 17 15 11 10 10 9 8 9 11 11 10 9 8 6 6 7 6 3 2 2 3 4 5 5 6 8 11 12 13 13 13 14 14 16 16 16 16 17 17 17 17 17 17 17 17 16 16 16 18 21 23 25 25 26 27 29 30 30 30 30 32 34 36 38 39 41 42 43 45 46 47 48 49
3 3 1 3 2 5 3 3 3 2 3 7 12 13 14 12 11 10 9 9 12 10 8 8 8 7 5 5 5 3 2 2 4 5 5 7 8 8 9 10 10 11 12 13 14 15 15 16 17 18 18 18 18 18 17 18 18 17 16 16 17 19 21 23 24 25 26 28 30 30 30 30 32 34 36 38 40 41 43 44 45 46 47 48 49 50
4 4 2 3 3 4 2 4 4 3 7 8 4 5 9 11 11 11 11 12 12 9 7 7 5 4 4 5 6 6 7 7 7 7 5 5 7 8 9 9 10 11 12 13 13 13 14 16 17 18 18 17 17 17 17 17 17 17 17 18 19 21 22 24 25 26 28 30 30 30 30 32 34 37 39 40 41 43 44 44 45 46 46 47 48 50
4 5 3 2 3 2 0 5 1 8 9 5 1 2 6 8 10 11 11 11 10 9 8 7 5 5 7 10 11 12 11 8 6 5 4 3 6 8 10 12 13 13 13 12 12 13 14 15 16 15 14 14 15 16 17 18 18 18 19 19 20 22 24 25 27 28 29 30 30 30 32 34 37 39 41 42 43 44 44 44 45 45 45 46 48 49
6 5 3 2 2 1 1 3 6 7 5 7 7 4 3 3 5 5 7 8 8 8 6 6 7 7 8 11 12 10 9 7 5 6 4 3 6 8 11 12 12 12 12 12 13 14 14 15 16 16 15 15 15 16 17 18 19 20 20 21 22 24 26 27 28 29 29 29 30 32 34 37 39 41 43 44 44 45 45 45 45 46 46 47 49 50
7 5 3 2 3 2 3 6 5 4 8 11 10 5 2 3 4 4 2 6 8 5 4 5 5 5 7 9 9 9 6 2 4 7 5 2 3 5 7 8 9 11 12 13 15 17 16 16 16 16 17 17 18 18 19 20 21 22 22 24 26 27 27 27 28 29 29 30 32 35 37 40 42 43 44 45 45 45 45 45 46 47 47 48 50 52
7 6 5 3 3 2 3 4 4 4 7 9 8 4 4 6 6 7 4 4 7 5 5 7 6 5 6 7 8 9 4 1 3 8 5 1 1 4 7 11 12 14 16 17 18 19 18 17 17 16 17 19 19 20 21 23 24 25 26 27 28 28 28 28 29 29 30 32 35 37 40 42 43 44 45 44 44 44 45 45 47 48 48 49 51 53
6 5 5 4 4 4 4 5 5 5 7 7 5 5 7 10 7 6 3 4 6 4 7 8 7 8 11 13 12 10 4 2 4 10 8 3 4 9 13 16 17 17 18 19 20 20 19 18 18 18 20 21 21 22 23 25 26 27 28 29 28 29 29 29 30 31 33 35 38 40 42 43 43 44 43 43 43 43 45 46 47 48 49 50 51 53
5 4 4 5 6 8 7 6 5 5 6 5 6 8 10 9 6 7 4 7 6 4 7 9 8 10 16 17 14 10 6 7 9 13 12 8 9 13 15 17 18 18 19 19 20 20 20 20 20 21 22 23 23 24 24 25 27 28 29 29 29 29 30 30 31 33 35 37 40 42 43 43 43 43 42 42 43 44 45 46 48 49 49 51 52 53
2 2 3 5 8 10 10 7 5 4 4 6 9 13 14 7 3 1 7 8 7 7 8 9 9 11 15 18 17 13 13 18 18 17 13 11 12 14 15 17 18 19 19 19 19 20 21 22 22 23 23 23 24 24 25 26 28 30 30 30 29 30 31 32 33 34 37 40 41 43 43 43 42 41 41 41 43 44 45 46 47 48 49 51 53 54
2 1 2 5 6 7 7 6 5 5 4 8 11 14 13 6 0 7 8 5 8 11 10 11 12 12 14 19 20 18 21 24 21 17 15 14 16 16 16 16 17 18 18 19 20 22 23 23 24 23 23 23 24 24 25 27 29 30 30 29 29 31 32 32 34 37 39 41 42 43 43 42 41 40 40 41 42 44 45 45 46 47 48 49 51 52
5 3 3 5 5 4 4 6 5 5 4 11 11 5 6 6 6 8 7 7 11 12 11 12 14 13 14 18 20 22 24 24 21 20 19 17 17 17 16 17 17 17 18 19 22 23 24 24 24 24 23 23 23 25 27 29 30 30 29 29 29 31 32 34 36 39 41 42 43 43 42 41 40 40 40 41 42 43 45 45 46 46 47 47 48 48
3 4 4 4 3 4 4 7 6 5 9 17 14 4 7 13 14 11 10 11 13 13 12 13 14 15 17 19 20 22 24 24 24 24 21 19 18 17 17 18 19 19 20 21 22 24 24 25 25 24 24 24 24 26 29 30 30 29 28 29 30 31 34 36 38 40 41 42 43 42 41 40 39 39 40 40 41 42 44 44 45 45 44 43 43 44
6 6 4 4 4 6 4 5 5 6 10 18 18 12 13 17 19 17 15 15 16 16 16 16 17 20 21 21 22 23 24 24 24 24 21 19 17 17 18 21 21 22 22 21 22 23 25 26 26 26 26 26 27 29 31 30 30 29 29 29 31 33 36 38 40 41 42 42 42 41 40 39 39 39 39 40 40 41 42 42 42 42 41 40 39 40
8 7 2 1 2 2 2 6 7 7 9 14 18 20 19 20 22 22 20 20 20 21 21 21 23 24 23 23 24 24 24 25 23 21 19 17 17 19 21 22 23 23 22 22 23 24 26 27 28 27 27 27 29 31 30 29 29 29 29 30 32 35 38 40 41 42 42 42 41 40 39 39 39 39 39 39 39 39 39 39 38 38 38 37 37 38
9 12 6 3 3 2 3 5 8 10 17 22 23 23 21 22 25 25 24 24 25 26 27 26 25 23 21 22 23 24 24 24 23 21 19 18 20 22 22 23 24 23 23 24 25 26 27 28 29 29 29 30 30 30 30 29 29 29 30 32 34 37 39 40 41 42 42 40 40 39 38 38 39 39 39 38 38 38 37 36 35 36 36 36 37 39
7 9 7 6 7 6 6 9 12 16 23 27 27 25 24 26 28 27 25 26 26 27 27 27 24 20 19 19 22 24 25 23 21 20 19 19 21 22 22 24 24 24 25 26 26 27 28 29 29 30 30 30 30 29 29 29 28 29 31 33 35 38 40 40 40 41 40 39 38 38 37 37 38 38 38 38 37 37 36 35 34 35 36 35 37 39
8 6 5 4 4 6 8 11 15 16 20 26 30 31 30 32 32 29 28 28 28 28 29 28 26 23 21 21 21 23 24 23 20 19 19 20 22 23 23 24 25 26 27 28 28 29 29 29 29 30 30 29 29 29 29 28 28 29 32 34 36 38 39 40 40 40 38 37 37 36 36 36 36 36 37 37 37 36 35 34 33 34 37 37 36 37
9 6 5 4 3 5 8 11 13 9 9 18 28 32 32 32 31 30 29 27 27 27 27 27 27 25 23 22 22 23 24 23 21 19 20 22 23 25 25 25 26 27 28 28 29 29 29 29 30 29 29 29 29 28 28 28 28 30 32 34 36 37 38 39 39 38 37 36 36 35 35 35 35 35 35 35 36 36 36 34 32 32 35 37 37 36
14 11 9 7 7 11 16 21 21 16 13 20 28 31 31 30 29 29 27 26 25 25 25 26 26 24 22 21 22 24 25 24 23 22 23 24 25 26 26 26 26 27 27 27 28 28 28 29 28 28 28 28 27 27 28 28 30 32 33 34 35 36 36 37 38 37 36 35 34 34 34 34 34 34 34 34 35 36 38 39 36 34 33 35 37 38
Wind_Direction
168 127 145 195 209 219 226 216 217 229 227 235 245 251 244 240 264 261 265 268 186 226 258 239 244 266 266 268 272 277 292 326 59 109 103 98 95 92 88 84 80 77 74 74 77 77 76 75 75 77 76 74 72 70 70 73 76 79 77 54 60 111 130 145 143 134 131 129 125 145 172 189 206 217 223 230 237 244 248 252 254 256 257 257 258 259
162 166 215 212 211 219 234 229 223 239 240 241 237 247 258 243 257 262 263 270 193 180 263 270 304 288 279 277 280 286 314 15 126 120 108 105 99 94 94 90 87 87 85 85 83 82 83 82 82 82 81 80 77 74 72 71 70 67 66 60 55 65 62 49 54 58 71 78 77 74 73 76 78 143 208 218 225 235 241 247 252 254 257 257 258 260
172 216 234 225 217 223 252 253 236 246 243 246 230 216 262 260 277 288 283 290 103 168 258 301 306 275 276 271 285 311 64 88 115 120 118 113 105 99 98 95 95 92 88 85 82 81 82 82 82 81 78 77 76 76 75 74 74 73 71 67 65 67 65 58 50 45 45 49 67 87 91 80 54 52 35 354 253 241 240 244 247 248 251 252 253 254
190 230 235 233 224 219 253 262 256 263 261 250 232 220 259 262 269 281 294 315 311 226 255 281 277 277 276 269 310 36 95 97 99 109 111 111 109 105 102 99 97 94 89 86 82 81 81 81 81 80 78 77 75 74 72 72 71 71 70 68 68 68 67 65 61 58 57 55 56 58 77 92 86 77 63 44 30 9 359 281 265 257 252 249 248 247
214 222 221 226 225 210 236 258 258 258 273 262 220 205 238 253 227 224 275 327 322 314 309 283 310 307 254 244 286 76 100 99 102 104 100 102 104 103 102 98 95 93 90 88 85 82 80 80 80 79 79 77 75 73 70 70 69 69 69 68 68 67 66 66 65 65 66 67 67 66 65 63 57 50 43 39 26 12 7 1 351 332 302 278 264 253
235 233 217 219 230 210 218 247 240 215 247 291 236 207 221 239 236 228 280 12 11 322 315 72 336 304 256 240 218 161 120 104 108 101 98 101 100 98 96 94 94 93 91 88 85 84 83 82 82 80 79 77 75 74 72 72 71 71 71 69 69 68 67 66 66 66 66 67 68 68 68 64 57 47 39 35 25 14 8 9 14 13 3 344 320 290
231 226 213 218 231 209 207 239 228 174 163 278 249 210 210 215 213 213 203 71 48 265 292 66 102 277 277 262 246 218 154 125 111 95 98 101 96 96 94 94 95 93 94 93 89 86 85 84 82 80 79 78 77 76 75 73 71 70 70 69 68 67 66 65 65 63 62 62 61 62 63 63 60 55 50 43 35 30 26 26 27 25 27 25 15 5
210 193 177 182 204 185 195 237 226 155 139 243 245 151 127 154 171 188 168 175 231 255 317 360 140 257 278 241 245 242 184 125 113 94 92 96 95 96 96 96 96 93 94 95 93 90 87 84 83 81 79 79 78 75 73 70 67 65 63 63 63 62 62 62 61 60 58 57 56 56 56 57 57 55 54 50 44 41 39 39 38 33 32 33 30 23
247 173 203 175 149 168 204 236 200 149 149 242 229 115 108 131 146 149 132 164 295 348 308 265 154 240 275 248 250 241 183 149 147 129 109 107 104 100 99 99 99 98 95 94 95 93 91 88 85 84 82 79 76 72 69 66 63 60 57 56 55 55 55 56 56 55 55 54 53 53 52 52 53 52 51 49 45 44 41 38 37 34 31 30 31 26
327 154 208 151 141 207 219 258 153 145 181 223 151 86 66 71 80 78 103 112 22 353 250 221 178 205 270 275 266 215 175 189 163 134 128 121 114 107 103 103 102 101 99 96 96 95 94 92 89 86 83 79 75 71 67 64 60 57 55 51 49 50 51 51 50 48 49 50 48 49 49 49 50 50 48 46 43 41 38 35 32 28 23 19 18 18
294 55 342 154 185 201 171 65 53 107 154 124 87 48 22 18 39 50 64 85 59 293 243 212 199 191 261 284 249 208 221 175 148 142 140 125 117 113 108 108 106 104 104 102 100 99 97 95 92 88 82 78 75 71 68 64 59 56 53 49 48 51 50 48 46 43 44 44 42 43 43 43 45 45 43 41 41 39 37 34 31 27 21 13 6 3
315 320 273 222 202 162 115 82 25 39 76 92 77 62 32 346 15 35 6 48 106 253 258 229 206 181 216 263 252 312 316 146 145 155 150 131 120 117 115 116 112 108 108 107 104 103 101 98 93 86 81 77 74 71 68 65 62 59 56 51 48 50 49 46 42 40 41 41 41 41 39 39 40 39 37 37 37 37 35 33 31 28 24 18 10 2
298 241 238 225 211 172 126 95 338 1 35 81 85 85 71 325 350 25 297 146 212 245 259 224 174 167 229 250 47 14 348 46 112 130 135 130 125 122 123 123 119 116 112 109 107 103 100 95 87 81 77 75 73 70 67 65 63 61 60 56 53 54 52 47 42 40 40 41 42 42 39 39 38 37 36 35 35 33 31 29 26 23 22 19 15 8
303 296 251 134 271 192 157 159 227 304 97 136 137 130 132 168 207 253 245 242 263 258 252 206 142 202 253 293 37 28 20 69 100 116 126 128 127 127 126 125 122 120 116 111 107 101 95 88 81 78 77 77 76 72 68 65 62 58 56 52 49 51 50 46 45 43 42 43 43 42 40 38 36 34 33 32 31 29 26 23 19 17 15 13 12 8
234 305 230 180 234 181 174 188 175 143 156 181 160 142 153 168 176 217 223 213 246 264 272 267 211 217 218 359 30 55 68 83 100 113 122 124 127 128 126 127 125 122 120 113 106 99 93 87 83 81 83 84 79 72 66 64 61 56 54 50 46 46 46 42 40 39 40 43 44 41 38 36 33 31 30 29 27 25 21 18 14 12 10 8 6 3
192 256 244 226 169 162 177 209 155 116 101 226 141 124 197 201 175 212 236 197 186 264 285 265 243 204 146 94 62 81 80 85 98 109 116 120 126 129 130 133 132 128 124 117 109 104 98 93 88 86 87 83 71 62 57 57 56 51 48 44 41 42 43 39 36 36 37 40 39 38 36 34 32 30 29 28 26 23 18 14 11 8 6 4 1 359
192 256 281 11 7 183 184 213 168 140 186 215 124 183 227 189 140 139 285 260 129 229 254 222 259 306 99 97 70 83 82 88 100 108 116 124 130 134 137 141 140 134 129 124 119 113 106 101 97 94 87 71 57 52 52 51 47 40 35 32 32 34 34 34 35 36 37 37 36 35 33 31 29 27 25 25 23 21 17 12 9 6 2 359 356 354
160 266 274 141 193 241 186 104 354 73 115 130 169 229 250 69 94 107 249 290 266 245 252 240 255 259 225 229 150 108 114 122 132 126 127 135 139 142 146 148 146 141 138 136 131 126 121 118 112 99 80 58 50 47 43 38 30 26 25 26 28 28 30 32 34 35 34 34 34 34 33 30 28 25 24 22 19 16 13 10 8 6 2 359 356 353
105 285 281 204 167 234 53 60 351 356 47 120 175 235 69 68 288 312 159 223 250 256 269 259 247 243 232 207 169 170 172 162 162 151 144 149 151 154 157 157 156 153 153 154 150 149 145 140 133 107 74 47 38 27 18 16 16 17 19 23 24 24 27 28 28 28 26 25 25 25 24 22 21 21 20 19 16 12 9 7 6 3 0 359 356 352
92 170 277 306 116 133 37 63 201 288 358 62 45 350 73 163 199 227 212 192 226 255 267 256 241 247 252 195 174 191 186 167 165 163 162 168 167 168 167 166 168 168 170 171 168 168 164 158 159 131 20 356 360 354 360 7 8 13 17 20 22 23 25 24 22 21 19 18 16 14 13 11 10 9 9 9 7 4 2 0 358 356 354 353 351 348
66 172 239 313 348 65 159 200 181 180 159 63 21 336 285 262 231 263 261 178 167 226 256 257 250 254 268 269 205 196 178 164 166 159 162 176 176 177 175 174 177 179 183 185 183 184 187 193 210 239 273 290 301 304 328 3 4 14 13 11 15 15 16 16 14 14 11 10 9 6 5 5 3 1 359 357 355 354 353 350 348 346 345 344 342 341
78 183 196 275 295 219 225 230 169 142 146 154 172 206 210 215 244 275 268 224 163 201 228 247 260 263 266 324 328 163 151 152 157 153 164 182 184 186 187 187 191 197 202 200 200 205 209 217 227 233 249 250 237 230 217 219 249 8 355 360 6 4 6 6 4 4 3 1 360 358 357 357 356 355 353 350 347 346 344 342 341 339 337 336 335 334
97 128 156 240 245 225 240 252 228 155 181 173 178 204 198 184 172 216 249 252 240 262 269 262 265 267 236 302 346 116 143 155 160 162 174 187 192 193 194 200 211 222 223 219 221 225 225 236 254 256 256 249 239 236 233 236 262 323 334 348 355 353 355 357 356 355 353 353 352 351 351 349 348 348 347 345 343 341 339 338 336 335 333 332 331 330
71 103 178 258 282 297 298 304 349 16 51 145 317 359 158 187 172 187 225 218 128 259 273 274 258 247 237 300 18 132 149 159 169 179 186 191 196 199 205 216 226 229 227 225 227 223 214 219 232 238 237 229 224 229 242 271 319 338 340 341 342 344 345 344 346 345 343 344 345 344 343 342 341 340 339 338 338 337 336 335 334 333 332 330 329 328
131 141 155 187 319 321 327 341 355 4 32 113 265 259 142 134 79 91 76 75 133 236 231 233 246 236 219 316 16 137 152 168 191 199 196 197 201 209 222 229 228 224 219 219 220 214 208 211 219 221 218 212 208 209 216 235 262 293 312 321 327 333 335 333 333 334 332 332 333 333 332 332 332 332 331 332 332 332 332 332 332 331 330 329 328 328
166 174 140 150 219 249 267 270 241 289 356 27 277 295 249 228 256 358 18 245 227 237 201 230 248 256 261 243 199 209 204 202 215 216 214 217 222 228 236 235 226 217 214 216 217 213 212 216 218 217 213 211 213 213 219 226 234 252 274 291 302 308 313 315 316 319 321 320 322 324 324 325 325 325 326 326 327 327 328 328 328 328 328 328 327 327
121 228 175 169 206 228 228 227 199 122 75 264 284 297 284 266 215 154 176 224 217 335 275 249 248 267 277 265 224 212 223 225 229 227 224 228 234 240 243 236 222 213 214 218 216 214 218 220 219 216 214 216 220 221 224 228 233 245 260 272 285 298 306 311 312 315 318 318 321 323 323 324 324 325 324 324 324 325 325 325 325 325 325 325 325 325
92 251 226 177 208 232 211 215 227 88 159 223 248 273 279 278 256 180 202 215 172 247 266 257 252 253 263 267 259 226 211 219 233 234 233 238 246 249 245 232 216 210 215 219 219 222 227 225 219 215 215 219 225 229 235 244 253 263 277 287 297 308 316 319 319 321 323 323 325 327 327 327 327 326 325 325 325 324 324 323 323 322 322 322 321 321
109 233 240 164 217 257 240 236 302 31 212 226 234 251 265 269 267 256 246 233 210 229 259 265 265 259 257 266 268 246 229 229 234 240 245 251 254 251 240 223 213 215 221 225 230 236 235 228 222 220 225 231 238 247 255 262 269 277 286 294 302 309 315 319 319 321 322 322 323 326 327 326 326 325 325 324 324 324 323 322 321 320 320 319 318 316
105 227 242 160 224 273 264 259 338 344 259 267 257 252 255 260 264 262 253 248 235 236 251 259 263 264 264 263 260 258 257 249 230 225 234 241 245 237 222 216 218 224 230 236 240 239 234 230 229 232 239 247 255 261 264 266 272 280 288 298 306 311 315 317 317 317 318 318 321 323 323 323 322 322 322 323 323 322 322 321 320 320 319 317 316 314
98 173 219 123 319 287 261 169 57 276 261 274 272 264 258 259 264 257 252 257 257 251 251 254 258 263 268 266 256 251 250 234 174 160 170 188 213 215 216 222 227 230 234 240 242 238 233 233 237 242 248 258 265 266 266 269 273 279 288 298 304 307 311 313 314 313 313 314 317 319 319 319 319 319 319 320 321 320 320 320 319 318 317 316 315 313
96 158 292 80 64 278 265 111 153 275 285 277 270 264 256 251 250 249 247 243 245 252 259 261 258 259 263 260 249 237 203 159 160 151 154 174 194 216 232 233 232 232 234 240 242 239 237 237 240 244 251 260 265 265 267 270 272 274 280 285 287 294 304 309 309 308 308 308 311 313 315 316 316 316 318 318 319 318 318 318 317 316 315 314 313 312
126 126 129 103 129 269 280 111 152 259 293 268 259 252 248 247 246 250 254 245 241 247 255 256 253 251 244 230 226 224 174 189 211 194 173 171 179 204 230 233 233 237 239 244 245 243 242 244 248 253 258 263 266 267 270 270 267 266 265 267 276 290 301 305 305 304 303 304 308 311 314 315 315 316 317 317 316 316 315 315 314 314 314 312 312 310
147 138 167 155 161 253 284 77 95 216 243 253 239 191 212 230 235 241 245 245 243 239 241 255 257 239 225 216 217 233 235 230 226 213 186 171 187 213 234 241 247 252 249 248 248 248 250 253 258 262 266 269 270 268 265 260 254 252 253 263 280 294 301 302 301 300 301 304 308 310 312 313 314 315 315 314 314 313 313 313 313 312 312 311 310 308
158 157 182 176 156 210 62 64 146 231 236 261 304 183 207 217 220 232 244 247 245 244 251 265 262 232 227 233 236 235 228 218 216 210 189 197 232 247 258 261 264 267 265 259 253 254 258 260 263 267 268 268 266 259 253 248 246 249 260 275 291 298 300 300 299 300 303 305 308 309 311 312 313 314 314 314 313 313 313 312 312 312 312 310 309 308
167 165 175 174 165 188 165 184 221 243 285 305 293 283 268 240 223 236 264 262 248 240 234 238 250 244 224 220 221 214 201 198 228 244 235 247 265 268 272 275 280 285 283 278 272 271 272 269 267 267 267 266 263 258 253 251 255 264 276 289 297 298 298 298 299 302 304 305 307 310 312 313 314 314 314 314 313 313 314 314 314 314 313 311 309 308
167 163 166 188 212 198 198 225 246 319 319 288 275 264 207 201 188 170 231 264 256 237 183 187 236 241 199 191 185 178 180 202 284 266 254 274 281 277 288 294 298 298 293 289 285 281 276 271 267 265 265 265 264 262 262 265 271 278 287 294 296 297 298 300 302 303 304 306 309 312 313 314 315 315 314 314 314 314 315 315 315 314 313 311 310 309
168 179 179 198 237 189 175 244 265 291 274 259 259 250 164 134 131 130 121 288 275 248 184 184 217 214 187 179 162 156 161 34 304 264 249 167 232 276 304 301 296 296 294 291 289 282 272 266 263 262 264 265 265 267 270 274 278 282 289 294 296 298 301 303 304 304 305 309 312 313 314 315 315 315 314 314 315 316 316 316 315 314 313 312 311 309
172 187 175 188 232 206 197 231 228 238 252 240 230 213 156 130 106 81 50 294 272 229 178 178 198 202 196 190 172 157 154 156 249 255 245 223 270 290 298 295 289 289 291 292 289 279 267 263 261 262 265 266 268 271 273 276 280 286 292 297 299 302 304 304 304 305 308 311 313 314 315 316 315 315 314 314 316 317 317 316 316 315 315 313 311 310
174 177 176 196 222 222 224 235 233 242 248 226 208 190 164 143 88 42 333 264 234 196 181 176 185 202 203 197 180 161 174 208 241 262 262 263 285 292 292 287 284 285 289 291 286 272 263 263 263 264 267 268 270 273 277 281 287 293 297 299 301 304 304 303 304 307 310 311 313 315 315 315 315 314 315 316 318 318 318 317 317 316 315 314 312 310
171 178 201 212 224 226 225 232 248 250 226 201 194 183 167 140 77 286 258 247 214 207 205 192 197 209 208 201 187 189 229 243 252 267 273 270 278 286 287 283 282 284 286 286 283 274 267 265 264 263 265 267 270 275 280 287 293 297 299 301 303 304 303 303 305 308 310 312 314 314 315 315 314 315 317 319 320 319 318 318 318 317 316 315 314 313
149 143 239 227 223 227 231 235 256 273 232 188 187 185 170 138 218 230 231 230 215 217 215 208 216 223 221 215 211 225 251 257 256 262 266 266 276 287 287 282 280 281 280 282 283 279 271 266 264 263 263 266 271 278 285 292 296 298 299 301 303 302 301 303 306 308 310 312 313 314 314 314 315 316 319 320 320 319 319 319 320 319 318 317 316 313
165 157 227 228 201 195 231 232 237 273 216 163 154 163 173 180 222 228 210 201 211 219 220 220 228 236 238 238 239 246 255 257 260 263 264 270 284 290 288 285 282 277 276 280 281 276 270 265 264 263 265 269 275 282 291 296 298 298 300 302 301 300 301 304 307 309 311 312 313 313 314 314 316 319 320 320 320 320 321 321 321 321 321 319 316 312
178 164 192 226 190 158 205 225 215 233 209 175 163 178 212 213 229 238 225 218 220 226 229 232 241 251 254 256 257 255 254 257 265 269 270 277 287 289 288 289 284 277 278 281 278 271 265 262 262 265 270 275 281 290 296 298 299 299 301 301 300 300 303 305 308 310 312 312 312 313 314 315 318 320 320 321 322 323 323 324 324 324 322 319 316 314
214 195 189 233 215 162 183 227 200 186 190 182 186 216 234 236 245 250 244 240 240 241 240 243 255 265 266 264 261 257 256 260 265 268 270 277 285 288 291 291 285 279 279 277 272 267 262 261 264 268 273 279 288 295 298 298 299 300 301 301 301 302 305 308 310 311 312 312 313 314 315 316 318 320 321 323 325 325 325 327 327 325 322 319 318 317
240 240 243 307 244 185 242 242 208 201 224 222 226 237 242 247 258 259 252 248 251 256 258 261 267 272 273 269 262 257 258 261 262 262 265 272 280 287 292 292 285 278 274 269 268 267 265 266 269 271 276 285 292 296 297 298 299 300 300 301 302 305 307 309 311 311 312 312 313 314 316 317 319 321 322 325 327 327 327 329 328 325 322 322 322 321
258 247 240 233 253 274 272 228 202 221 248 255 256 254 247 250 260 262 258 257 262 267 270 272 274 275 272 268 263 261 261 260 258 259 263 271 280 286 289 287 281 274 269 268 268 269 269 270 272 275 282 289 293 295 296 297 298 299 300 302 304 307 309 310 311 312 312 313 314 315 317 318 320 322 324 326 327 328 329 331 330 325 324 326 327 325
245 233 226 233 242 241 245 243 237 243 253 258 262 261 256 257 260 260 259 262 266 270 273 275 273 267 262 262 262 261 260 257 254 258 268 277 283 284 283 279 274 270 269 269 270 271 272 274 276 281 286 290 293 294 295 295 297 298 300 303 306 308 309 311 312 312 313 314 314 315 318 321 322 323 325 327 328 329 330 332 331 327 327 331 331 327
229 219 203 202 227 244 255 253 250 256 264 262 259 258 259 261 262 261 261 262 263 266 269 268 266 262 261 262 263 259 255 253 254 263 275 282 283 280 276 273 272 270 270 272 273 274 276 278 281 285 289 291 292 293 292 293 295 298 301 304 307 309 310 312 312 312 313 313 314 316 320 322 323 324 326 327 328 330 331 332 332 332 331 332 332 328
228 231 222 201 221 249 250 240 230 231 256 257 255 258 261 262 262 261 261 261 260 261 263 262 260 261 261 262 261 255 251 253 260 269 278 283 282 277 274 273 272 272 272 274 275 277 279 281 284 286 288 290 291 291 291 293 296 300 303 306 308 310 312 312 312 312 313 313 314 318 322 322 323 325 327 328 330 331 330 330 334 337 335 333 332 330
227 227 226 221 230 242 249 248 237 225 235 252 257 262 265 266 264 260 257 257 258 260 260 257 254 255 257 258 258 254 252 258 268 276 282 285 282 278 276 275 273 273 274 276 277 279 280 282 284 286 287 289 289 289 291 294 298 303 306 309 311 312 312 313 312 312 312 313 316 320 322 322 323 326 328 330 332 332 331 331 334 339 342 339 334 331
Height
1531 1535 1538 1537 1535 1532 1529 1529 1528 1528 1529 1531 1532 1532 1532 1533 1530 1524 1520 1517 1516 1519 1519 1517 1518 1518 1516 1514 1510 1506 1506 1508 1510 1510 1511 1511 1511 1511 1511 1511 1511 1510 1511 1512 1510 1508 1507 1507 1506 1505 1504 1503 1503 1502 1501 1501 1501 1501 1501 1502 1502 1502 1502 1500 1499 1498 1498 1499 1500 1500 1501 1502 1503 1504 1505 1506 1507 1508 1508 1510 1511 1512 1513 1514 1515 1516
1531 1535 1534 1530 1527 1525 1524 1525 1527 1528 1529 1530 1531 1532 1532 1532 1528 1522 1519 1516 1516 1520 1519 1515 1518 1518 1515 1512 1507 1504 1506 1508 1508 1509 1511 1511 1511 1511 1511 1511 1511 1512 1512 1512 1510 1509 1508 1508 1507 1506 1505 1504 1503 1503 1503 1502 1502 1502 1502 1503 1503 1503 1503 1502 1500 1499 1498 1499 1500 1501 1501 1502 1503 1503 1504 1505 1506 1506 1507 1508 1509 1510 1511 1512 1513 1513
1534 1534 1528 1523 1523 1524 1523 1524 1526 1527 1527 1529 1530 1531 1532 1530 1527 1523 1519 1516 1516 1519 1518 1516 1518 1517 1513 1510 1505 1504 1507 1509 1509 1509 1510 1511 1511 1512 1512 1512 1512 1512 1513 1512 1511 1510 1510 1509 1508 1507 1506 1505 1504 1504 1504 1504 1503 1503 1503 1503 1504 1504 1504 1503 1502 1500 1499 1499 1500 1501 1502 1502 1503 1503 1504 1504 1504 1505 1505 1506 1507 1507 1508 1509 1509 1510
1534 1529 1522 1519 1522 1524 1525 1524 1525 1525 1526 1527 1528 1530 1530 1527 1528 1527 1521 1517 1517 1517 1517 1517 1518 1517 1514 1508 1507 1509 1508 1509 1511 1510 1511 1511 1511 1512 1512 1512 1512 1512 1512 1512 1512 1512 1511 1511 1509 1507 1506 1506 1506 1505 1505 1505 1505 1504 1504 1504 1505 1505 1505 1504 1502 1501 1500 1499 1500 1501 1502 1503 1503 1503 1504 1504 1504 1504 1505 1505 1505 1505 1506 1506 1506 1507
1524 1520 1517 1518 1521 1523 1525 1524 1524 1526 1527 1526 1525 1526 1525 1523 1526 1527 1522 1519 1518 1517 1515 1516 1520 1518 1512 1507 1509 1513 1511 1511 1513 1512 1513 1514 1514 1514 1513 1513 1513 1513 1513 1513 1513 1514 1513 1512 1510 1509 1508 1507 1507 1506 1506 1507 1507 1507 1507 1507 1507 1508 1507 1506 1504 1502 1501 1500 1500 1501 1503 1503 1504 1504 1504 1504 1504 1504 1504 1505 1505 1504 1504 1504 1504 1505
1519 1516 1516 1518 1520 1521 1524 1524 1522 1525 1528 1526 1522 1520 1520 1520 1522 1523 1523 1522 1523 1523 1517 1518 1525 1521 1509 1505 1508 1511 1512 1513 1515 1514 1515 1517 1516 1516 1514 1514 1515 1515 1514 1514 1515 1515 1515 1514 1513 1511 1510 1509 1508 1508 1509 1510 1510 1510 1510 1509 1510 1510 1510 1508 1506 1504 1503 1501 1501 1502 1503 1503 1504 1504 1504 1504 1504 1504 1504 1504 1504 1504 1503 1503 1503 1503
1516 1514 1515 1516 1517 1519 1522 1522 1520 1521 1527 1528 1521 1517 1518 1519 1521 1522 1522 1524 1527 1527 1520 1518 1528 1526 1512 1506 1504 1504 1508 1513 1515 1516 1517 1518 1518 1517 1517 1517 1518 1517 1516 1515 1516 1516 1516 1515 1515 1514 1513 1512 1512 1512 1512 1512 1513 1512 1512 1511 1512 1512 1512 1511 1509 1507 1505 1502 1501 1503 1503 1504 1504 1504 1504 1504 1504 1504 1504 1503 1503 1503 1503 1503 1503 1503
1512 1513 1514 1514 1516 1519 1521 1520 1517 1518 1525 1526 1519 1517 1518 1518 1521 1521 1521 1524 1525 1525 1524 1521 1525 1528 1520 1509 1501 1496 1503 1512 1516 1518 1519 1520 1520 1519 1519 1519 1520 1519 1517 1516 1516 1515 1516 1516 1516 1517 1516 1515 1515 1515 1515 1514 1514 1514 1513 1513 1514 1514 1514 1513 1512 1509 1506 1503 1503 1504 1505 1506 1506 1506 1506 1505 1505 1505 1504 1504 1503 1502 1502 1502 1502 1502
1511 1514 1514 1514 1517 1519 1518 1516 1515 1517 1521 1521 1518 1519 1519 1518 1521 1521 1522 1526 1527 1529 1531 1524 1523 1528 1520 1508 1501 1497 1503 1512 1516 1518 1520 1520 1520 1520 1521 1521 1520 1519 1519 1518 1516 1515 1516 1517 1518 1519 1519 1518 1517 1517 1516 1516 1516 1515 1515 1515 1515 1515 1515 1515 1515 1511 1506 1504 1504 1506 1507 1507 1507 1507 1507 1507 1506 1506 1505 1504 1503 1502 1502 1501 1501 1501
1513 1514 1514 1514 1517 1517 1514 1514 1515 1516 1518 1518 1519 1519 1519 1521 1522 1524 1527 1528 1531 1534 1532 1524 1523 1526 1516 1503 1500 1500 1501 1507 1513 1517 1519 1519 1520 1521 1521 1523 1522 1519 1518 1519 1518 1517 1517 1518 1519 1520 1520 1520 1519 1518 1518 1517 1517 1517 1517 1517 1516 1515 1515 1516 1516 1513 1507 1505 1505 1507 1508 1508 1508 1508 1508 1508 1507 1506 1505 1505 1504 1503 1502 1501 1501 1500
1514 1514 1514 1513 1514 1513 1513 1516 1517 1517 1517 1518 1519 1520 1521 1524 1525 1528 1529 1530 1536 1535 1525 1519 1517 1521 1519 1503 1496 1499 1496 1498 1508 1515 1518 1519 1520 1521 1522 1523 1523 1521 1519 1520 1520 1519 1519 1519 1520 1521 1521 1521 1520 1519 1519 1518 1518 1518 1518 1518 1517 1516 1517 1517 1517 1513 1508 1505 1505 1507 1508 1509 1509 1508 1508 1507 1507 1506 1506 1505 1504 1503 1503 1501 1501 1500
1515 1514 1513 1511 1511 1511 1513 1515 1517 1518 1518 1518 1520 1522 1524 1527 1528 1533 1534 1535 1541 1532 1517 1516 1516 1520 1522 1504 1495 1500 1497 1494 1500 1507 1513 1517 1520 1522 1523 1523 1523 1523 1521 1521 1521 1520 1521 1520 1520 1521 1522 1522 1522 1521 1519 1518 1518 1519 1519 1519 1518 1518 1518 1518 1516 1513 1509 1506 1506 1507 1509 1509 1509 1508 1508 1507 1506 1506 1505 1505 1505 1504 1504 1503 1501 1500
1514 1512 1511 1510 1509 1510 1512 1516 1519 1520 1519 1520 1522 1526 1532 1535 1534 1536 1538 1540 1539 1526 1514 1513 1516 1520 1516 1500 1499 1506 1503 1499 1500 1504 1511 1515 1518 1521 1522 1523 1523 1523 1522 1522 1521 1521 1522 1521 1520 1521 1522 1523 1523 1521 1519 1518 1519 1519 1519 1519 1519 1518 1518 1517 1515 1512 1509 1507 1506 1508 1509 1510 1510 1509 1508 1507 1506 1505 1505 1504 1504 1504 1503 1503 1502 1501
1513 1511 1510 1511 1509 1508 1510 1514 1517 1518 1519 1521 1521 1525 1534 1537 1537 1535 1534 1536 1533 1521 1512 1511 1514 1514 1504 1500 1509 1511 1507 1505 1504 1508 1513 1514 1518 1520 1521 1522 1522 1522 1523 1522 1521 1521 1522 1522 1520 1521 1522 1523 1523 1521 1518 1518 1519 1520 1520 1519 1518 1518 1517 1516 1514 1512 1509 1507 1507 1509 1510 1510 1510 1509 1508 1507 1506 1505 1505 1504 1504 1503 1503 1502 1501 1501
1516 1513 1508 1508 1507 1505 1506 1508 1510 1512 1516 1519 1517 1521 1525 1523 1526 1528 1524 1525 1525 1517 1512 1512 1511 1505 1498 1505 1516 1514 1511 1509 1509 1512 1514 1516 1518 1519 1520 1521 1521 1522 1522 1521 1521 1521 1521 1522 1521 1521 1522 1523 1522 1519 1518 1518 1519 1520 1519 1519 1518 1517 1516 1515 1513 1511 1508 1507 1508 1510 1511 1511 1511 1510 1509 1508 1506 1506 1505 1504 1504 1503 1503 1502 1501 1501
1516 1511 1504 1505 1504 1504 1506 1505 1506 1510 1515 1517 1516 1519 1521 1514 1514 1519 1518 1517 1520 1520 1515 1510 1505 1503 1506 1515 1518 1515 1514 1513 1514 1515 1516 1517 1519 1519 1520 1520 1520 1520 1520 1521 1521 1521 1521 1521 1520 1521 1522 1522 1520 1518 1517 1518 1519 1519 1518 1518 1517 1515 1514 1513 1511 1509 1508 1509 1509 1510 1511 1512 1511 1511 1509 1508 1507 1506 1505 1504 1504 1503 1502 1502 1501 1501
1513 1510 1504 1506 1505 1504 1506 1505 1505 1508 1511 1515 1517 1516 1515 1512 1511 1517 1520 1516 1518 1523 1516 1504 1501 1506 1512 1517 1518 1517 1517 1516 1517 1517 1517 1518 1519 1519 1519 1519 1519 1519 1519 1520 1520 1520 1520 1520 1520 1521 1522 1521 1519 1518 1518 1518 1518 1518 1517 1516 1515 1514 1513 1512 1510 1510 1510 1510 1510 1511 1511 1512 1511 1510 1508 1507 1506 1506 1505 1505 1504 1503 1502 1501 1501 1500
1509 1509 1505 1504 1505 1504 1505 1506 1505 1506 1507 1512 1516 1512 1509 1512 1512 1515 1522 1522 1521 1525 1515 1502 1503 1505 1504 1509 1518 1520 1518 1519 1519 1518 1518 1518 1518 1518 1518 1518 1519 1519 1519 1520 1519 1520 1520 1520 1521 1521 1521 1520 1519 1518 1518 1518 1517 1517 1516 1515 1515 1514 1513 1512 1511 1511 1511 1511 1511 1511 1511 1511 1510 1509 1507 1506 1506 1505 1505 1504 1503 1503 1502 1501 1500 1499
1507 1510 1506 1502 1504 1505 1505 1507 1508 1507 1506 1508 1510 1509 1510 1516 1516 1515 1522 1525 1523 1523 1516 1505 1503 1502 1498 1503 1515 1517 1515 1517 1518 1518 1518 1518 1518 1518 1517 1518 1518 1518 1519 1519 1519 1519 1519 1520 1520 1520 1519 1519 1518 1518 1517 1517 1517 1516 1516 1515 1515 1514 1514 1513 1513 1512 1512 1511 1511 1511 1511 1510 1509 1508 1507 1506 1505 1505 1504 1503 1502 1502 1501 1500 1499 1498
1505 1511 1510 1503 1503 1506 1506 1508 1511 1509 1508 1508 1509 1509 1511 1515 1517 1515 1516 1518 1518 1519 1517 1510 1504 1499 1498 1502 1507 1508 1510 1513 1515 1517 1518 1517 1517 1517 1516 1517 1517 1517 1518 1518 1518 1519 1518 1519 1519 1518 1518 1518 1517 1517 1516 1516 1516 1516 1516 1516 1515 1515 1514 1514 1513 1512 1512 1511 1511 1511 1510 1510 1509 1508 1507 1506 1505 1504 1503 1502 1501 1501 1500 1499 1498 1497
1504 1509 1512 1507 1505 1507 1507 1506 1507 1507 1507 1509 1511 1513 1513 1512 1514 1515 1513 1510 1513 1517 1516 1514 1508 1499 1499 1505 1503 1501 1505 1510 1512 1514 1516 1516 1516 1516 1515 1515 1515 1516 1517 1517 1517 1517 1517 1518 1517 1517 1517 1517 1516 1516 1516 1516 1516 1516 1516 1516 1515 1515 1514 1514 1513 1512 1512 1511 1511 1510 1510 1509 1508 1507 1506 1505 1504 1503 1502 1501 1500 1500 1499 1498 1497 1495
1505 1508 1511 1509 1507 1507 1505 1503 1503 1504 1507 1510 1512 1512 1512 1513 1514 1518 1517 1509 1508 1512 1510 1511 1509 1499 1501 1508 1505 1502 1506 1508 1510 1512 1514 1514 1514 1513 1513 1513 1514 1514 1515 1515 1516 1516 1516 1516 1516 1516 1516 1516 1516 1516 1516 1516 1516 1516 1516 1515 1514 1514 1513 1512 1512 1511 1511 1510 1509 1509 1508 1508 1507 1506 1505 1504 1503 1501 1500 1499 1498 1498 1497 1496 1495 1493
1506 1509 1511 1510 1506 1504 1503 1501 1502 1504 1504 1507 1510 1509 1509 1511 1512 1517 1519 1511 1508 1509 1505 1507 1509 1503 1504 1509 1507 1506 1506 1507 1509 1510 1510 1511 1510 1510 1511 1511 1512 1512 1512 1513 1513 1513 1513 1513 1513 1514 1514 1514 1514 1514 1515 1515 1515 1515 1515 1514 1514 1513 1512 1511 1511 1510 1509 1508 1508 1507 1506 1505 1504 1503 1502 1501 1500 1499 1498 1497 1497 1496 1494 1493 1492 1491
1507 1510 1513 1510 1505 1503 1501 1501 1502 1503 1503 1505 1509 1510 1510 1511 1512 1514 1515 1515 1516 1512 1506 1511 1512 1504 1505 1509 1507 1507 1507 1506 1508 1507 1507 1508 1508 1509 1509 1509 1509 1510 1510 1511 1510 1511 1511 1511 1511 1512 1512 1512 1512 1512 1513 1513 1513 1513 1513 1512 1512 1511 1511 1510 1510 1509 1508 1507 1507 1505 1504 1503 1502 1500 1499 1498 1497 1496 1495 1495 1494 1493 1492 1491 1489 1488
1508 1510 1514 1515 1514 1510 1505 1503 1504 1505 1507 1509 1510 1512 1512 1512 1514 1516 1516 1518 1522 1515 1509 1515 1512 1501 1504 1510 1508 1507 1508 1507 1507 1506 1506 1507 1506 1507 1507 1506 1507 1508 1508 1508 1508 1509 1509 1509 1510 1510 1510 1511 1511 1511 1511 1511 1512 1511 1511 1511 1510 1510 1509 1509 1508 1508 1507 1506 1505 1504 1503 1501 1500 1499 1498 1497 1495 1494 1493 1492 1491 1490 1488 1487 1486 1485
1507 1508 1510 1513 1516 1515 1509 1506 1507 1509 1511 1511 1510 1511 1512 1512 1514 1516 1517 1521 1523 1517 1514 1516 1510 1501 1503 1508 1508 1508 1508 1507 1507 1506 1506 1505 1505 1505 1504 1504 1505 1505 1506 1507 1507 1508 1508 1508 1509 1509 1509 1509 1510 1510 1510 1510 1510 1510 1510 1509 1509 1508 1508 1507 1507 1506 1505 1504 1503 1502 1501 1500 1499 1498 1496 1495 1494 1493 1491 1490 1488 1487 1485 1484 1482 1481
1506 1508 1507 1506 1507 1507 1505 1505 1508 1512 1513 1512 1511 1510 1510 1511 1513 1515 1519 1520 1520 1519 1517 1511 1505 1503 1502 1501 1504 1507 1507 1506 1505 1504 1504 1503 1502 1502 1502 1502 1503 1503 1505 1505 1506 1507 1507 1507 1508 1508 1508 1508 1508 1509 1508 1508 1509 1508 1508 1508 1507 1507 1506 1505 1505 1504 1503 1502 1501 1500 1499 1498 1497 1496 1495 1493 1492 1491 1489 1488 1487 1485 1483 1482 1480 1478
1506 1507 1506 1506 1505 1504 1504 1507 1509 1512 1513 1513 1512 1510 1508 1508 1510 1514 1517 1516 1515 1519 1515 1503 1501 1506 1502 1497 1499 1502 1503 1504 1502 1501 1500 1499 1499 1500 1499 1500 1502 1502 1503 1504 1505 1505 1505 1506 1506 1506 1506 1506 1506 1507 1507 1507 1507 1506 1506 1506 1505 1504 1503 1502 1502 1501 1500 1499 1498 1498 1496 1495 1495 1493 1492 1491 1489 1488 1487 1486 1484 1483 1481 1480 1477 1475
1506 1506 1504 1506 1508 1505 1505 1509 1509 1510 1512 1511 1510 1510 1507 1506 1507 1511 1513 1511 1511 1514 1508 1499 1500 1503 1500 1496 1497 1498 1499 1499 1498 1498 1497 1497 1497 1497 1497 1499 1500 1500 1501 1502 1503 1503 1504 1504 1504 1504 1504 1504 1504 1505 1504 1504 1504 1504 1503 1503 1502 1502 1501 1500 1499 1498 1497 1496 1495 1494 1493 1492 1491 1490 1489 1488 1486 1485 1484 1482 1481 1479 1478 1476 1474 1472
1505 1506 1505 1506 1507 1506 1507 1509 1510 1510 1511 1510 1508 1508 1506 1504 1506 1508 1508 1504 1505 1507 1503 1500 1502 1499 1495 1495 1495 1495 1495 1495 1495 1496 1495 1495 1495 1494 1495 1497 1497 1498 1499 1500 1501 1501 1501 1502 1502 1502 1502 1502 1502 1502 1502 1502 1502 1501 1501 1500 1500 1499 1498 1498 1497 1496 1495 1494 1493 1492 1490 1489 1488 1486 1485 1484 1482 1481 1479 1478 1476 1474 1472 1470 1469 1467
1504 1506 1506 1506 1508 1508 1507 1509 1511 1511 1510 1510 1507 1504 1503 1504 1506 1505 1503 1501 1503 1503 1500 1500 1502 1498 1493 1493 1493 1493 1493 1492 1493 1493 1493 1493 1493 1493 1494 1495 1495 1496 1497 1497 1498 1498 1498 1499 1499 1500 1500 1500 1500 1499 1499 1499 1499 1499 1498 1498 1497 1496 1496 1495 1494 1494 1493 1491 1490 1489 1488 1486 1485 1483 1482 1480 1479 1477 1475 1473 1471 1468 1466 1464 1462 1460
1503 1506 1506 1507 1511 1509 1505 1510 1512 1509 1510 1512 1506 1500 1499 1502 1503 1499 1498 1498 1498 1497 1497 1499 1500 1496 1492 1492 1491 1490 1491 1491 1491 1491 1491 1492 1492 1492 1493 1493 1493 1494 1495 1495 1495 1495 1496 1496 1496 1497 1496 1496 1496 1496 1496 1496 1496 1496 1495 1495 1494 1494 1493 1492 1491 1490 1490 1489 1488 1486 1485 1483 1481 1479 1478 1476 1474 1472 1469 1467 1465 1463 1460 1458 1455 1453
1502 1505 1505 1508 1513 1510 1508 1512 1512 1511 1518 1514 1499 1492 1494 1496 1497 1496 1495 1494 1492 1493 1496 1496 1493 1491 1490 1490 1489 1489 1490 1490 1489 1489 1490 1490 1491 1491 1491 1491 1492 1493 1492 1493 1493 1493 1494 1494 1494 1494 1493 1494 1494 1494 1494 1493 1493 1493 1492 1492 1491 1491 1490 1489 1488 1487 1486 1485 1484 1483 1481 1479 1477 1475 1473 1471 1469 1467 1464 1462 1459 1457 1454 1451 1449 1446
1502 1504 1505 1507 1513 1515 1512 1512 1514 1519 1519 1502 1484 1484 1489 1489 1490 1492 1491 1488 1488 1489 1490 1489 1488 1488 1488 1488 1487 1488 1488 1487 1487 1488 1488 1489 1490 1490 1490 1491 1491 1491 1491 1491 1491 1492 1492 1492 1492 1492 1491 1492 1492 1491 1491 1491 1490 1490 1489 1489 1488 1487 1487 1486 1485 1484 1483 1482 1481 1479 1477 1475 1473 1471 1469 1466 1464 1462 1459 1457 1454 1451 1449 1446 1443 1439
1501 1504 1506 1506 1511 1516 1513 1514 1522 1519 1503 1486 1481 1484 1486 1485 1485 1487 1486 1485 1486 1486 1486 1486 1487 1487 1486 1485 1485 1485 1485 1485 1486 1487 1487 1489 1489 1489 1489 1489 1489 1489 1490 1490 1490 1490 1490 1490 1490 1490 1490 1490 1489 1489 1488 1488 1487 1487 1486 1486 1485 1484 1483 1483 1482 1481 1479 1478 1476 1475 1473 1471 1468 1466 1464 1461 1459 1456 1453 1451 1448 1445 1443 1440 1436 1433
1499 1504 1506 1505 1509 1513 1512 1514 1515 1505 1489 1483 1485 1484 1484 1485 1485 1486 1487 1485 1482 1483 1484 1484 1485 1484 1483 1484 1483 1484 1485 1485 1486 1486 1487 1488 1488 1487 1487 1487 1487 1488 1488 1488 1489 1489 1489 1488 1488 1488 1487 1487 1486 1486 1485 1485 1484 1484 1483 1482 1482 1481 1480 1479 1478 1477 1475 1473 1472 1470 1468 1466 1463 1461 1458 1456 1453 1450 1447 1444 1441 1438 1435 1432 1429 1426
1496 1500 1504 1507 1507 1509 1511 1508 1500 1496 1492 1486 1481 1480 1482 1483 1482 1484 1488 1484 1480 1480 1482 1482 1482 1481 1482 1482 1483 1484 1485 1485 1485 1485 1485 1486 1486 1486 1486 1485 1486 1486 1486 1487 1487 1486 1486 1486 1485 1485 1484 1484 1483 1483 1482 1482 1482 1481 1480 1479 1478 1478 1477 1475 1474 1472 1471 1469 1467 1465 1463 1460 1458 1455 1452 1450 1447 1444 1441 1438 1434 1432 1429 1425 1421 1418
1494 1495 1499 1505 1504 1503 1510 1510 1504 1504 1499 1483 1477 1479 1480 1480 1480 1482 1486 1485 1479 1478 1480 1480 1480 1481 1482 1483 1483 1484 1485 1486 1486 1484 1483 1484 1484 1484 1484 1484 1484 1484 1484 1484 1484 1483 1483 1482 1481 1481 1481 1481 1480 1480 1480 1479 1478 1478 1477 1476 1475 1474 1473 1471 1469 1468 1466 1464 1462 1460 1457 1455 1452 1449 1447 1444 1441 1438 1434 1431 1428 1425 1422 1418 1413 1409
1494 1494 1496 1502 1503 1501 1505 1506 1503 1500 1490 1477 1476 1479 1479 1479 1479 1480 1487 1485 1477 1475 1478 1478 1479 1480 1481 1481 1482 1483 1485 1486 1484 1481 1481 1482 1482 1482 1482 1482 1482 1482 1481 1481 1481 1480 1479 1479 1478 1478 1478 1477 1477 1477 1476 1476 1475 1474 1473 1472 1471 1470 1468 1466 1465 1463 1461 1459 1457 1455 1452 1450 1447 1444 1442 1439 1435 1432 1428 1425 1422 1418 1415 1411 1406 1402
1494 1495 1497 1500 1499 1497 1499 1499 1494 1487 1479 1475 1477 1478 1477 1478 1477 1484 1492 1485 1473 1473 1477 1476 1477 1478 1478 1479 1480 1481 1482 1482 1480 1478 1479 1479 1480 1480 1480 1479 1479 1479 1478 1478 1478 1477 1476 1476 1475 1475 1474 1474 1474 1473 1473 1472 1471 1471 1469 1468 1467 1465 1464 1462 1460 1458 1457 1454 1452 1449 1447 1444 1442 1439 1436 1433 1429 1426 1422 1419 1415 1411 1408 1404 1400 1395
1496 1496 1495 1496 1494 1492 1493 1493 1488 1480 1474 1474 1475 1475 1475 1477 1480 1486 1487 1476 1470 1473 1474 1473 1475 1475 1475 1477 1478 1477 1477 1475 1474 1475 1476 1476 1477 1477 1477 1477 1476 1476 1475 1475 1475 1474 1474 1473 1472 1471 1471 1470 1470 1470 1469 1469 1468 1467 1465 1464 1463 1461 1459 1458 1456 1454 1452 1449 1447 1445 1442 1440 1437 1434 1431 1427 1423 1419 1416 1413 1409 1405 1401 1397 1392 1388
1494 1495 1494 1492 1491 1490 1489 1488 1486 1480 1472 1470 1472 1473 1474 1478 1480 1478 1472 1467 1469 1472 1470 1471 1473 1472 1473 1474 1473 1473 1472 1471 1471 1472 1473 1473 1474 1473 1474 1474 1474 1473 1473 1472 1472 1471 1471 1470 1469 1468 1467 1467 1467 1466 1465 1465 1464 1463 1462 1460 1459 1457 1455 1453 1452 1450 1447 1445 1442 1440 1437 1435 1432 1428 1425 1421 1417 1414 1410 1407 1404 1399 1395 1391 1386 1381
1484 1488 1490 1486 1484 1487 1489 1489 1489 1481 1469 1466 1470 1472 1473 1473 1471 1467 1465 1466 1468 1468 1468 1470 1470 1469 1471 1471 1470 1470 1470 1469 1470 1470 1470 1470 1471 1470 1471 1471 1470 1470 1470 1469 1469 1468 1467 1466 1465 1464 1464 1463 1463 1462 1461 1461 1460 1459 1458 1457 1455 1453 1451 1449 1447 1445 1442 1440 1437 1435 1432 1430 1426 1423 1419 1416 1413 1408 1404 1401 1398 1394 1389 1385 1381 1375
1477 1479 1479 1475 1474 1479 1482 1480 1476 1469 1463 1463 1466 1467 1467 1466 1464 1463 1464 1465 1465 1466 1467 1467 1466 1467 1468 1467 1467 1468 1467 1466 1467 1467 1467 1468 1467 1468 1468 1467 1467 1467 1467 1466 1466 1465 1464 1463 1462 1461 1461 1460 1459 1458 1458 1457 1456 1455 1454 1452 1450 1449 1447 1445 1442 1440 1437 1435 1432 1430 1427 1424 1421 1418 1414 1411 1407 1403 1399 1396 1392 1388 1384 1381 1377 1371
1469 1466 1464 1463 1463 1465 1466 1464 1462 1460 1460 1462 1462 1462 1463 1463 1462 1462 1463 1462 1463 1464 1463 1463 1464 1465 1464 1464 1464 1464 1463 1464 1464 1464 1464 1464 1464 1464 1465 1464 1464 1464 1463 1463 1462 1461 1461 1460 1459 1458 1457 1456 1456 1455 1454 1453 1452 1450 1449 1448 1446 1444 1442 1439 1437 1435 1432 1430 1427 1425 1422 1419 1416 1413 1409 1406 1402 1398 1395 1391 1387 1383 1380 1377 1372 1367
1462 1460 1461 1460 1458 1458 1459 1459 1459 1459 1459 1460 1460 1460 1460 1460 1460 1460 1460 1460 1460 1460 1460 1461 1461 1460 1461 1461 1460 1460 1460 1460 1460 1461 1461 1461 1461 1461 1461 1460 1460 1460 1459 1459 1458 1458 1457 1457 1456 1455 1454 1453 1453 1451 1450 1449 1448 1446 1445 1443 1441 1439 1437 1435 1432 1430 1427 1425 1422 1420 1417 1414 1410 1407 1404 1401 1398 1394 1391 1387 1383 1379 1376 1372 1368 1363
1460 1459 1460 1458 1457 1460 1460 1456 1456 1457 1456 1456 1456 1456 1456 1457 1456 1456 1456 1456 1456 1457 1457 1457 1457 1457 1457 1457 1456 1457 1457 1456 1457 1457 1457 1457 1457 1457 1457 1457 1456 1455 1455 1455 1454 1454 1454 1453 1452 1451 1450 1450 1449 1448 1447 1445 1444 1443 1441 1439 1437 1435 1432 1430 1428 1425 1422 1420 1417 1415 1412 1408 1405 1402 1399 1396 1393 1390 1387 1384 1381 1377 1373 1368 1363 1358
1458 1457 1458 1456 1456 1458 1457 1453 1453 1454 1453 1452 1452 1452 1453 1453 1452 1452 1453 1453 1453 1453 1453 1453 1453 1453 1453 1453 1453 1453 1453 1453 1453 1453 1453 1453 1453 1453 1453 1453 1452 1452 1452 1451 1451 1450 1450 1449 1448 1448 1447 1446 1445 1444 1443 1441 1440 1439 1437 1435 1433 1430 1428 1425 1423 1420 1418 1415 1413 1410 1407 1404 1400 1397 1394 1391 1389 1386 1382 1380 1377 1373 1368 1364 1359 1354
1455 1454 1453 1453 1454 1455 1453 1451 1451 1452 1450 1448 1448 1448 1447 1447 1447 1448 1449 1449 1449 1449 1449 1449 1449 1449 1449 1449 1449 1449 1449 1449 1449 1449 1449 1449 1449 1448 1449 1449 1448 1448 1448 1447 1447 1446 1445 1445 1444 1443 1442 1442 1440 1439 1438 1437 1436 1435 1432 1430 1428 1426 1423 1421 1418 1416 1413 1411 1409 1406 1403 1400 1397 1393 1390 1387 1384 1381 1379 1377 1374 1369 1362 1359 1357 1353
1451 1449 1448 1451 1454 1452 1447 1445 1446 1448 1446 1443 1442 1443 1442 1443 1443 1444 1444 1444 1444 1444 1444 1444 1444 1444 1444 1445 1445 1445 1445 1445 1445 1446 1445 1445 1445 1445 1445 1445 1445 1444 1444 1443 1443 1442 1441 1441 1440 1439 1438 1438 1436 1435 1434 1433 1432 1430 1428 1426 1424 1421 1419 1416 1413 1411 1409 1407 1404 1402 1398 1395 1392 1389 1386 1383 1379 1376 1373 1372 1371 1367 1360 1355 1353 1352
1443 1442 1443 1447 1447 1442 1438 1437 1439 1441 1440 1437 1438 1439 1438 1439 1439 1439 1439 1439 1439 1439 1440 1440 1440 1440 1441 1441 1441 1441 1441 1441 1442 1441 1441 1441 1441 1441 1441 1441 1441 1440 1440 1439 1439 1438 1437 1436 1435 1435 1434 1433 1432 1431 1430 1429 1428 1426 1424 1422 1419 1417 1414 1412 1409 1407 1405 1403 1400 1397 1394 1391 1388 1385 1383 1379 1375 1371 1367 1364 1362 1361 1358 1354 1350 1347